Date String (YYYY-MM-DD hh:mm:ss) UTC,Instrument flags,Ambient pressure (hPa),Sample flow (lpm),Bypass flow (lpm),Sample temperature (°C),Ambient temperature (°C),ASC tube jacket temperature (°C),LED temperature (°C),Box temperature (°C),Sample RH (%),Span deviation,Mass concentration (μg/m³),Mass concentration (μg/m³),Mass concentration (μg/m³)
DateTimeUTC,F1_M11,P_M11,Q1_M11,Q2_M11,T1_M11,T2_M11,T3_M11,T4_M11,T5_M11,U1_M11,ZSPAN_M11,X0_M11,X2_M11,X1_M11
2021-12-10 04:00:00,,0811.5,5.01,0.00,25.4,24.5,00.0,34.4,27.1,12.8,0000.0,0018.21,0004.91,0003.43
2021-12-10 04:01:00,,0811.6,4.99,0.00,25.4,24.5,00.0,34.4,27.1,12.7,0000.0,0017.16,0004.89,0003.42
2021-12-10 04:02:00,,0811.6,5.00,0.00,25.4,24.5,00.0,34.4,27.1,12.8,0000.0,0017.53,0004.88,0003.43
2021-12-10 04:03:00,,0811.5,5.00,0.00,25.4,24.5,00.0,34.4,27.1,12.8,0000.0,0019.49,0004.87,0003.43
2021-12-10 04:04:00,,0811.5,4.99,0.00,25.4,24.5,00.0,34.4,27.1,12.8,0000.0,0019.87,0004.87,0003.41
2021-12-10 04:05:00,,0811.5,5.01,0.00,25.4,24.5,00.0,34.4,27.1,12.8,0000.0,0021.04,0004.90,0003.40
2021-12-10 04:06:00,,0811.5,5.00,0.00,25.4,24.5,00.0,34.4,27.1,12.8,0000.0,0019.69,0004.90,0003.38
2021-12-10 04:07:00,,0811.5,5.00,0.00,25.3,24.4,00.0,34.4,27.1,12.8,0000.0,0018.64,0004.88,0003.36
2021-12-10 04:08:00,,0811.6,4.98,0.00,25.3,24.4,00.0,34.4,27.0,12.8,0000.0,0018.96,0004.84,0003.34
2021-12-10 04:09:00,,0811.5,4.99,0.00,25.3,24.4,00.0,34.4,27.0,12.9,0000.0,0019.99,0004.89,0003.32
2021-12-10 04:10:00,,0811.6,5.01,0.00,25.3,24.4,00.0,34.4,27.0,12.9,0000.0,0020.61,0004.91,0003.31
2021-12-10 04:11:00,,0811.6,5.00,0.00,25.3,24.4,00.0,34.3,27.1,12.9,0000.0,0019.51,0004.86,0003.29
2021-12-10 04:12:00,,0811.5,5.00,0.00,25.3,24.4,00.0,34.3,27.1,13.0,0000.0,0019.58,0004.83,0003.27
2021-12-10 04:13:00,,0811.4,5.00,0.00,25.3,24.4,00.0,34.3,27.1,13.0,0000.0,0019.46,0004.78,0003.26
2021-12-10 04:14:00,,0811.4,5.01,0.00,25.3,24.4,00.0,34.3,27.1,13.0,0000.0,0017.97,0004.75,0003.24
2021-12-10 04:15:00,,0811.3,5.00,0.00,25.3,24.4,00.0,34.3,27.1,13.0,0000.0,0017.90,0004.78,0003.24
2021-12-10 04:16:00,,0811.4,4.99,0.00,25.3,24.4,00.0,34.3,27.1,13.0,0000.0,0017.09,0004.81,0003.24
2021-12-10 04:17:00,,0811.3,5.01,0.00,25.3,24.4,00.0,34.3,27.0,12.9,0000.0,0017.25,0004.83,0003.24
2021-12-10 04:18:00,,0811.4,5.01,0.00,25.3,24.4,00.0,34.3,27.0,12.9,0000.0,0018.14,0004.82,0003.24
2021-12-10 04:19:00,,0811.4,5.00,0.00,25.3,24.4,00.0,34.3,27.0,12.9,0000.0,0018.19,0004.83,0003.23
2021-12-10 04:20:00,,0811.4,5.00,0.00,25.3,24.4,00.0,34.3,27.0,12.9,0000.0,0017.14,0004.78,0003.23
2021-12-10 04:21:00,,0811.4,5.00,0.00,25.3,24.4,00.0,34.3,27.0,12.9,0000.0,0016.72,0004.75,0003.21
2021-12-10 04:22:00,,0811.3,5.01,0.00,25.3,24.4,00.0,34.3,27.0,13.0,0000.0,0018.29,0004.76,0003.21
2021-12-10 04:23:00,,0811.3,4.99,0.00,25.3,24.4,00.0,34.3,27.0,13.0,0000.0,0019.33,0004.78,0003.21
2021-12-10 04:24:00,,0811.3,4.99,0.00,25.3,24.4,00.0,34.3,27.0,13.0,0000.0,0019.20,0004.73,0003.20
2021-12-10 04:25:00,,0811.2,5.01,0.00,25.2,24.3,00.0,34.3,27.0,13.0,0000.0,0019.71,0004.72,0003.19
2021-12-10 04:26:00,,0811.2,5.00,0.00,25.2,24.3,00.0,34.3,27.0,13.1,0000.0,0019.43,0004.73,0003.19
2021-12-10 04:27:00,,0811.2,5.01,0.00,25.3,24.3,00.0,34.3,27.0,13.0,0000.0,0019.87,0004.67,0003.19
2021-12-10 04:28:00,,0811.2,5.00,0.00,25.2,24.3,00.0,34.3,27.0,13.0,0000.0,0020.16,0004.61,0003.18
2021-12-10 04:29:00,,0811.2,5.00,0.00,25.2,24.3,00.0,34.2,26.9,13.0,0000.0,0019.05,0004.60,0003.18
2021-12-10 04:30:00,,0811.1,4.99,0.00,25.2,24.3,00.0,34.2,27.0,13.1,0000.0,0018.90,0004.62,0003.18
2021-12-10 04:31:00,,0811.0,5.01,0.00,25.2,24.3,00.0,34.2,27.0,13.0,0000.0,0018.15,0004.64,0003.19
2021-12-10 04:32:00,,0811.0,4.99,0.00,25.2,24.3,00.0,34.2,27.0,13.0,0000.0,0018.45,0004.69,0003.21
2021-12-10 04:33:00,,0811.0,5.02,0.00,25.2,24.3,00.0,34.2,27.0,13.0,0000.0,0018.03,0004.70,0003.22
2021-12-10 04:34:00,,0811.0,4.98,0.00,25.2,24.3,00.0,34.2,26.9,13.0,0000.0,0016.25,0004.68,0003.21
2021-12-10 04:35:00,,0811.0,5.02,0.00,25.2,24.3,00.0,34.2,27.0,13.0,0000.0,0016.49,0004.70,0003.21
2021-12-10 04:36:00,,0811.0,5.00,0.00,25.2,24.3,00.0,34.2,26.9,13.0,0000.0,0016.19,0004.75,0003.23
2021-12-10 04:37:00,,0811.0,5.00,0.00,25.2,24.3,00.0,34.2,27.0,13.0,0000.0,0015.40,0004.73,0003.23
2021-12-10 04:38:00,,0811.0,5.01,0.00,25.2,24.3,00.0,34.2,27.0,12.9,0000.0,0014.69,0004.76,0003.24
2021-12-10 04:39:00,,0811.0,4.99,0.00,25.2,24.3,00.0,34.2,27.0,12.9,0000.0,0014.49,0004.79,0003.25
2021-12-10 04:40:00,,0811.0,5.01,0.00,25.2,24.3,00.0,34.2,26.9,12.9,0000.0,0014.63,0004.80,0003.26
2021-12-10 04:41:00,,0810.9,5.00,0.00,25.2,24.3,00.0,34.2,27.0,12.9,0000.0,0014.43,0004.75,0003.27
2021-12-10 04:42:00,,0810.9,4.99,0.00,25.2,24.3,00.0,34.2,27.0,12.9,0000.0,0014.19,0004.68,0003.28
2021-12-10 04:43:00,,0810.9,5.00,0.00,25.2,24.2,00.0,34.2,26.9,12.9,0000.0,0013.60,0004.59,0003.28
2021-12-10 04:44:00,,0811.0,5.01,0.00,25.2,24.2,00.0,34.2,26.9,12.9,0000.0,0013.24,0004.59,0003.28
2021-12-10 04:45:00,,0811.0,4.99,0.00,25.2,24.2,00.0,34.2,26.9,12.9,0000.0,0013.90,0004.60,0003.29
2021-12-10 04:46:00,,0811.0,5.01,0.00,25.2,24.2,00.0,34.2,27.0,12.9,0000.0,0013.75,0004.64,0003.30
2021-12-10 04:47:00,,0811.0,4.99,0.00,25.2,24.2,00.0,34.2,26.9,12.9,0000.0,0013.51,0004.62,0003.29
2021-12-10 04:48:00,,0811.0,5.01,0.00,25.2,24.2,00.0,34.2,26.9,12.9,0000.0,0014.36,0004.59,0003.29
2021-12-10 04:49:00,,0811.0,4.99,0.00,25.2,24.2,00.0,34.2,26.9,12.9,0000.0,0014.33,0004.54,0003.28
2021-12-10 04:50:00,,0810.9,5.01,0.00,25.1,24.2,00.0,34.2,26.9,12.9,0000.0,0013.86,0004.55,0003.28
2021-12-10 04:51:00,,0811.0,4.99,0.00,25.1,24.2,00.0,34.2,26.9,12.9,0000.0,0014.51,0004.55,0003.28
2021-12-10 04:52:00,,0811.0,5.01,0.00,25.1,24.2,00.0,34.2,26.9,12.9,0000.0,0015.44,0004.58,0003.27
2021-12-10 04:53:00,,0811.0,5.01,0.00,25.1,24.2,00.0,34.2,26.9,12.9,0000.0,0015.63,0004.61,0003.27
2021-12-10 04:54:00,,0811.0,5.00,0.00,25.1,24.2,00.0,34.1,26.9,12.9,0000.0,0015.94,0004.64,0003.26
2021-12-10 04:55:00,,0811.0,4.99,0.00,25.1,24.2,00.0,34.1,26.8,12.9,0000.0,0015.23,0004.63,0003.27
2021-12-10 04:56:00,,0811.0,4.99,0.00,25.1,24.2,00.0,34.1,26.8,12.9,0000.0,0014.56,0004.63,0003.27
2021-12-10 04:57:00,,0811.0,4.99,0.00,25.1,24.2,00.0,34.1,26.9,12.9,0000.0,0014.86,0004.60,0003.28
2021-12-10 04:58:00,,0810.9,4.99,0.00,25.1,24.1,00.0,34.1,26.9,13.0,0000.0,0015.47,0004.61,0003.28
2021-12-10 04:59:00,,0811.0,5.01,0.00,25.1,24.1,00.0,34.1,26.9,13.0,0000.0,0014.83,0004.70,0003.30
